Temperature
17 17 17 17 17 17 17 18 17 17 17 18 18 18 17 17 17 17 17 16 16 16 16 16 16 16 16 16 16 16 15 15 15 15 15 15 15 15
17 17 17 17 17 17 17 17 17 17 17 18 18 18 17 17 17 17 16 16 16 16 16 16 16 16 16 16 16 16 15 15 15 15 15 15 15 15
17 17 17 17 17 17 17 17 17 17 17 17 17 17 17 17 17 16 16 16 16 16 16 16 16 16 16 16 16 15 15 15 15 15 15 15 15 14
17 17 17 17 17 17 17 17 17 17 17 17 17 17 17 17 16 16 16 16 16 16 16 16 16 16 16 15 15 15 15 15 15 15 14 14 14 14
16 16 16 16 16 16 17 17 17 17 17 16 16 16 16 16 16 16 16 16 16 16 16 16 16 16 16 15 15 15 15 15 15 14 14 14 14 14
16 16 16 16 16 16 16 16 16 16 16 16 16 16 16 16 16 16 16 16 15 15 15 16 16 16 15 15 15 15 15 15 15 14 14 14 14 14
16 16 16 16 16 16 16 16 16 16 16 16 16 16 16 15 16 15 15 15 15 15 15 15 15 15 15 15 15 15 15 15 14 14 14 14 14 14
15 16 16 16 16 16 16 16 16 15 15 15 15 15 15 15 15 15 15 15 15 15 15 15 15 15 15 15 15 15 15 15 14 14 14 14 14 14
15 15 15 15 15 16 16 15 15 15 15 15 15 15 15 15 15 15 15 15 15 15 15 15 15 15 15 15 15 15 15 14 14 14 14 14 14 13
15 15 14 15 15 15 15 15 15 15 15 15 15 15 15 14 14 14 14 14 14 14 14 14 14 14 14 14 14 14 14 14 14 14 14 14 13 13
14 14 14 14 15 15 15 14 14 14 14 14 14 14 14 14 14 14 14 14 14 14 14 14 14 14 14 14 14 14 14 14 14 13 13 13 13 13
14 14 14 14 14 14 14 14 14 14 14 14 14 14 14 14 14 14 13 13 13 13 13 13 13 13 13 13 13 14 14 13 13 13 13 13 13 12
13 13 13 14 14 14 14 13 13 13 13 13 13 13 13 13 13 13 13 13 13 13 13 13 13 13 13 13 13 13 13 13 13 13 12 12 12 12
13 13 13 13 13 13 13 13 13 13 13 13 13 13 13 13 13 13 13 13 13 13 13 13 13 12 12 12 12 12 12 12 12 12 12 12 12 12
13 13 13 13 12 12 12 12 12 12 12 12 12 12 12 12 12 12 12 12 12 12 12 12 12 12 12 12 12 12 12 12 12 12 12 12 12 11
12 12 12 12 12 12 12 12 12 12 12 12 12 12 12 12 12 12 12 12 12 12 12 12 12 12 12 12 12 12 11 11 11 11 11 11 11 11
12 12 12 12 12 12 12 11 11 11 11 11 11 11 11 11 11 11 11 11 11 11 11 11 11 11 11 11 11 11 11 11 11 11 11 11 11 11
11 11 11 11 11 11 11 11 11 11 11 11 11 11 11 11 11 11 11 11 11 11 11 11 11 11 11 10 11 10 10 10 10 10 10 10 10 10
11 11 11 11 11 11 11 11 11 11 11 11 11 11 10 10 10 10 10 10 10 10 10 10 10 10 10 10 10 10 10 10 10 10 10 9 9 10
11 10 10 10 10 10 10 10 10 10 10 10 10 10 10 10 10 10 10 10 9 9 9 9 9 9 9 9 9 10 9 9 9 9 9 9 9 9
10 10 10 10 10 10 9 9 9 9 9 9 9 9 9 9 9 9 9 9 9 9 9 9 9 9 9 9 9 9 9 9 9 9 9 9 8 8
9 9 9 9 9 9 9 9 9 9 9 9 9 9 8 8 8 8 8 8 8 8 8 8 8 8 8 8 8 8 8 9 8 8 8 8 8 8
9 9 9 9 9 9 9 9 9 8 8 8 8 8 8 8 8 8 8 8 8 8 8 8 8 8 8 8 8 8 8 8 8 8 8 8 8 8
Wind_Speed
3 3 3 2 2 3 3 2 3 3 3 3 2 3 4 6 9 9 9 12 14 14 14 13 12 11 11 11 10 11 10 10 10 10 10 10 10 10
3 2 3 3 3 2 3 2 3 3 3 2 2 2 3 4 8 8 9 13 14 15 15 15 14 13 13 12 12 12 11 11 10 10 10 10 10 10
3 3 3 3 3 3 3 2 3 2 3 3 2 1 2 2 3 5 8 9 10 15 17 17 16 16 15 14 13 13 12 12 11 11 10 10 10 10
3 3 4 3 3 3 3 3 3 3 3 4 2 1 2 3 4 5 5 8 8 13 17 18 18 17 16 16 15 14 13 13 12 11 10 10 10 10
3 3 3 3 3 3 3 3 3 4 3 3 3 2 2 2 3 4 5 3 6 9 14 17 18 18 17 16 16 15 14 14 13 12 12 11 11 11
2 2 2 2 3 3 3 3 3 4 3 4 3 3 3 3 2 3 3 3 4 5 6 9 14 17 17 17 17 16 16 15 14 14 14 13 12 12
2 2 2 2 2 2 3 2 3 3 3 4 3 3 3 2 2 3 4 3 4 3 3 3 5 6 9 14 16 17 17 17 16 16 15 14 14 13
3 3 3 3 3 3 2 2 2 3 3 3 3 3 3 3 2 3 3 4 4 2 3 4 3 4 6 8 13 17 18 18 17 16 16 15 15 14
3 3 4 3 1 2 3 4 4 5 5 4 4 4 4 3 3 4 4 5 5 3 3 4 3 4 4 8 13 17 18 18 17 16 16 15 15 14
3 3 2 2 3 2 3 4 4 4 5 4 4 5 4 4 4 5 6 6 5 4 3 4 4 4 4 3 11 14 15 16 16 16 16 16 15 15
2 1 1 0 3 4 4 4 4 4 4 5 5 5 6 6 5 3 4 5 6 5 3 3 3 3 3 3 6 11 13 14 14 15 16 16 15 13
1 0 1 1 2 2 3 4 5 5 4 4 4 5 6 5 5 4 4 4 4 4 3 3 3 3 3 3 2 4 7 10 12 13 14 14 14 10
2 1 1 1 1 2 3 4 5 6 5 5 4 4 4 4 4 4 5 4 5 5 3 2 3 4 4 4 3 3 4 4 6 8 11 13 15 12
3 1 2 2 3 4 4 5 7 6 5 5 4 4 4 4 4 5 5 6 6 6 5 4 3 4 5 5 4 3 3 4 4 5 6 9 12 14
3 4 3 4 5 4 6 6 6 4 4 4 5 4 4 4 3 3 4 4 6 7 6 5 5 4 4 5 5 4 4 4 4 4 4 5 6 6
3 3 4 4 4 4 4 4 4 4 4 4 4 4 4 4 3 3 3 3 4 4 4 6 5 5 5 5 4 5 4 3 3 3 3 4 5 7
4 3 2 2 2 3 3 2 2 3 4 4 4 4 5 4 3 3 3 3 4 4 4 3 4 5 5 4 4 4 4 3 3 3 3 4 5 5
2 2 3 3 3 3 3 3 2 3 4 4 4 4 4 4 4 3 3 3 4 4 4 3 3 2 3 3 3 3 3 3 3 3 4 4 4 3
1 2 3 3 3 4 4 3 3 3 3 3 3 4 4 4 3 3 3 3 3 4 4 3 2 2 4 5 4 3 4 4 3 3 3 3 4 4
1 2 3 3 3 3 4 4 4 4 4 4 4 4 4 4 4 4 4 4 4 4 4 4 3 3 4 5 5 4 5 4 3 4 4 3 4 4
2 2 3 3 3 3 3 3 3 3 4 3 4 4 4 4 4 4 4 5 5 5 5 4 4 6 4 4 4 4 3 4 5 4 4 4 4 4
3 3 3 4 3 3 3 3 4 4 4 4 4 4 5 4 4 5 5 4 4 5 5 5 4 4 3 4 5 5 4 3 4 6 6 6 4 4
3 4 4 3 4 4 4 5 5 4 5 6 6 6 6 5 5 5 5 5 5 5 5 5 5 4 4 4 5 5 4 4 2 2 3 4 5 7
Wind_Direction
249 265 261 271 265 257 257 247 245 258 253 236 214 187 174 170 179 184 190 198 201 203 205 207 209 212 214 216 219 219 221 222 224 227 231 235 239 241
237 262 275 268 267 259 255 258 256 250 257 252 236 191 177 197 190 194 198 200 204 204 207 210 211 212 214 216 219 220 219 220 223 224 229 233 236 239
249 253 260 270 280 281 276 268 264 248 252 276 262 205 181 193 188 208 199 197 206 207 209 211 213 215 217 218 219 218 218 220 222 224 228 233 235 236
244 247 254 259 272 278 281 277 277 267 250 258 262 251 231 201 200 217 217 217 212 212 210 212 215 217 218 218 218 217 216 218 221 224 226 229 232 235
251 248 252 251 269 265 276 285 278 276 266 263 265 258 246 230 219 241 241 233 232 224 213 215 217 218 215 216 216 216 216 216 219 223 225 228 230 233
266 264 269 268 277 280 270 280 282 287 282 271 265 261 248 242 228 242 254 245 254 241 224 218 218 216 217 218 218 217 216 217 220 224 226 227 228 231
254 259 269 280 280 269 272 289 287 283 278 271 267 275 273 257 255 257 262 257 255 247 228 230 208 210 218 224 223 221 218 218 220 223 225 227 228 230
247 248 242 251 247 232 242 259 264 270 286 288 281 274 270 267 271 277 278 275 272 252 240 252 226 214 212 215 215 215 215 216 219 221 224 228 231 233
266 268 272 282 252 257 242 248 259 263 253 266 287 289 288 284 268 268 276 278 271 264 253 258 246 240 236 222 209 209 211 214 218 222 224 227 230 233
260 271 284 328 312 310 286 267 256 259 257 248 260 273 284 303 283 268 269 270 271 264 247 259 261 258 262 228 212 209 211 214 218 222 224 227 231 235
271 294 290 294 319 320 298 290 286 276 263 253 246 255 263 274 278 283 281 275 276 273 253 251 262 276 267 236 217 213 216 218 220 223 225 227 231 234
287 313 28 330 309 327 300 298 290 291 293 279 273 269 265 264 257 242 261 276 283 280 262 251 265 275 269 250 220 209 221 227 225 226 227 227 226 227
292 292 286 298 300 299 291 287 287 294 290 276 268 261 259 256 248 240 238 244 261 266 278 263 268 265 260 270 264 229 215 224 222 230 229 228 224 221
307 316 312 300 291 285 282 286 295 300 291 285 279 277 273 268 259 245 242 238 238 243 258 263 260 260 268 272 268 243 233 226 221 222 223 228 229 232
316 324 308 296 299 290 276 281 288 286 285 284 285 284 279 273 267 259 248 247 253 254 251 249 252 256 256 266 268 259 259 244 226 226 223 220 227 231
311 306 288 273 279 285 291 287 274 272 277 280 288 291 291 282 277 274 271 269 266 265 252 252 252 247 256 260 261 264 261 248 237 240 246 246 236 228
311 292 294 301 298 291 292 292 282 274 273 277 283 290 292 289 286 287 281 278 278 281 283 273 262 255 238 241 251 258 266 266 257 252 257 258 249 239
336 312 319 320 317 312 307 306 305 305 299 291 287 290 295 298 298 298 300 300 294 292 293 294 290 285 281 277 242 253 267 268 273 265 261 262 266 256
332 313 319 323 328 331 329 328 323 319 316 315 319 314 307 303 304 304 301 298 294 292 289 284 279 268 272 279 284 268 257 263 265 263 259 263 270 266
295 308 317 328 339 338 336 335 338 340 336 332 331 329 328 319 311 306 300 291 285 281 282 279 275 262 255 267 277 279 263 243 248 261 267 271 273 265
342 342 336 339 345 341 341 341 341 340 335 334 339 335 326 319 316 313 308 304 295 289 286 283 273 262 259 265 274 279 281 271 251 246 250 260 271 274
348 355 352 345 346 349 345 345 345 343 342 344 346 338 327 319 313 310 310 309 305 301 297 294 290 281 272 269 274 278 281 287 283 282 272 249 239 245
354 351 348 351 357 356 350 345 345 354 1 355 346 336 329 325 321 319 318 316 313 311 310 309 304 285 274 267 270 275 277 284 288 299 305 287 257 250
Height
1533 1534 1534 1534 1534 1534 1534 1535 1535 1533 1532 1532 1533 1533 1534 1534 1533 1534 1534 1534 1534 1534 1534 1535 1535 1536 1536 1537 1537 1538 1538 1539 1539 1540 1541 1541 1542 1542
1531 1531 1531 1531 1532 1532 1532 1532 1532 1531 1530 1530 1530 1531 1531 1531 1531 1531 1531 1531 1531 1531 1532 1532 1532 1532 1533 1533 1534 1534 1535 1535 1536 1536 1537 1537 1538 1538
1528 1529 1529 1529 1529 1529 1529 1529 1529 1529 1527 1527 1527 1528 1528 1528 1528 1528 1528 1528 1528 1528 1529 1529 1529 1529 1529 1529 1530 1530 1531 1531 1532 1532 1533 1533 1534 1534
1526 1526 1526 1526 1526 1526 1526 1526 1526 1526 1526 1524 1524 1525 1525 1525 1525 1525 1525 1525 1525 1525 1525 1525 1526 1526 1526 1526 1526 1527 1527 1527 1528 1528 1529 1529 1529 1530
1523 1523 1523 1523 1523 1523 1522 1523 1523 1523 1523 1522 1522 1522 1522 1522 1522 1522 1522 1522 1522 1522 1522 1521 1522 1522 1522 1522 1522 1523 1523 1523 1524 1524 1524 1524 1525 1525
1520 1520 1520 1520 1520 1520 1520 1520 1520 1520 1520 1519 1519 1518 1518 1518 1518 1518 1518 1518 1518 1518 1518 1517 1517 1518 1518 1518 1518 1519 1519 1519 1519 1519 1520 1520 1520 1520
1517 1517 1517 1517 1516 1517 1517 1516 1517 1516 1516 1516 1515 1515 1515 1515 1515 1515 1514 1514 1514 1514 1514 1513 1513 1513 1513 1513 1514 1514 1514 1515 1515 1515 1515 1515 1515 1515
1513 1513 1514 1514 1513 1513 1513 1513 1513 1513 1512 1512 1512 1512 1511 1511 1511 1511 1511 1511 1510 1511 1510 1509 1509 1508 1508 1509 1509 1509 1510 1510 1510 1510 1510 1510 1510 1510
1511 1511 1511 1511 1510 1509 1509 1510 1509 1509 1510 1509 1508 1508 1508 1507 1507 1507 1507 1506 1506 1506 1506 1505 1505 1504 1505 1504 1505 1505 1505 1505 1505 1505 1505 1505 1505 1506
1508 1508 1507 1506 1506 1506 1505 1505 1505 1505 1505 1505 1504 1504 1504 1504 1504 1503 1502 1502 1502 1502 1502 1501 1500 1500 1500 1500 1500 1500 1501 1501 1501 1500 1500 1500 1500 1501
1504 1504 1503 1502 1503 1502 1502 1501 1500 1500 1501 1501 1500 1500 1500 1500 1500 1499 1498 1498 1497 1497 1497 1496 1495 1495 1495 1495 1495 1495 1495 1495 1495 1495 1495 1495 1495 1496
1501 1500 1499 1499 1499 1499 1498 1497 1496 1496 1496 1496 1496 1496 1496 1495 1495 1495 1494 1493 1493 1492 1492 1492 1491 1491 1490 1490 1490 1490 1490 1490 1490 1490 1490 1490 1490 1491
1498 1497 1496 1496 1496 1495 1494 1494 1493 1493 1492 1492 1491 1491 1491 1490 1490 1490 1489 1489 1488 1487 1487 1487 1486 1486 1486 1485 1485 1485 1484 1484 1484 1484 1484 1485 1485 1485
1496 1494 1494 1493 1493 1492 1491 1490 1490 1489 1488 1488 1487 1486 1486 1485 1484 1484 1484 1483 1483 1482 1482 1482 1481 1481 1480 1479 1479 1479 1479 1479 1479 1479 1479 1479 1479 1480
1493 1492 1492 1491 1490 1489 1488 1487 1486 1485 1484 1485 1484 1483 1482 1481 1480 1480 1479 1478 1478 1477 1477 1476 1476 1475 1475 1474 1474 1474 1474 1474 1474 1474 1474 1473 1473 1473
1490 1490 1489 1488 1487 1486 1485 1484 1483 1483 1482 1481 1480 1479 1478 1477 1476 1476 1474 1473 1472 1471 1471 1471 1471 1470 1469 1469 1469 1468 1468 1468 1468 1468 1468 1468 1468 1468
1488 1487 1486 1485 1485 1484 1483 1482 1481 1480 1479 1478 1477 1476 1475 1473 1472 1472 1471 1469 1468 1467 1466 1466 1466 1465 1464 1464 1463 1463 1463 1462 1463 1462 1463 1462 1462 1462
1486 1485 1484 1484 1483 1482 1481 1479 1478 1477 1476 1475 1473 1472 1471 1470 1469 1468 1467 1465 1464 1463 1462 1461 1460 1459 1459 1459 1459 1458 1458 1458 1458 1457 1457 1457 1456 1456
1485 1484 1483 1482 1482 1480 1479 1478 1476 1475 1473 1472 1470 1469 1467 1466 1465 1464 1462 1461 1460 1459 1458 1457 1456 1455 1454 1453 1453 1455 1454 1453 1453 1452 1451 1451 1450 1449
1483 1482 1482 1481 1480 1478 1477 1475 1474 1472 1471 1469 1467 1466 1464 1463 1461 1460 1459 1457 1456 1454 1453 1453 1452 1451 1450 1449 1448 1448 1450 1449 1448 1447 1446 1445 1445 1445
1482 1481 1481 1479 1478 1476 1475 1473 1472 1470 1468 1466 1464 1463 1462 1460 1458 1457 1455 1454 1452 1451 1449 1449 1448 1448 1446 1445 1445 1443 1444 1444 1444 1443 1441 1441 1440 1439
1481 1480 1479 1478 1476 1475 1473 1471 1470 1468 1466 1464 1462 1461 1459 1457 1455 1454 1452 1450 1449 1447 1445 1444 1444 1443 1442 1440 1439 1439 1438 1438 1438 1439 1438 1437 1435 1433
1480 1479 1478 1477 1476 1474 1472 1470 1468 1466 1464 1462 1460 1459 1457 1455 1454 1451 1449 1447 1445 1443 1442 1440 1439 1438 1438 1437 1436 1435 1434 1434 1433 1433 1433 1433 1432 1431